SCP
0 0 1 0 0 0 -0 -0 -0 -0 -0 -0 -1 -1 -0 -0 -0 -0 -0 -0 -0 -0 -0 -0 -0 -0 -0 -0 -0 -0 -0 -0 -0 -0 -0 -0 -0 -0 0 0 0 0 0
0 0 1 0 0 0 -0 -0 -0 -0 -0 -0 -0 -0 -0 -0 -0 -0 -0 -0 -0 -0 -0 -0 -0 -0 -0 -0 -0 -0 -0 -0 -0 -0 -0 -0 -0 -0 0 0 0 0 0
0 0 0 0 0 0 0 -0 -0 -0 -0 -0 -0 -0 -0 -0 -0 -0 -0 -0 -0 -0 -0 -0 -0 -0 -0 -0 -0 -0 -0 -0 -0 -0 -0 -0 -0 -0 -0 -0 0 0 0
0 -0 0 -0 -0 -0 -0 0 -0 -0 -0 -0 -0 -0 -0 -0 -0 -0 0 0 0 0 0 -0 -0 -0 -0 -0 -0 -0 -0 -0 -0 -0 0 -0 0 -0 -0 -0 0 0 0
0 0 0 0 -0 -0 -0 0 -0 -0 -0 -0 -0 -0 -0 -0 -0 -0 0 0 0 0 0 0 0 -0 -0 -0 -0 0 0 0 0 -0 0 0 0 0 -0 0 0 0 0
-0 -0 0 0 0 0 0 0 -0 -0 -0 -0 -0 -0 -0 -0 -0 -0 0 0 0 0 0 0 0 0 0 0 0 0 0 0 0 0 0 0 0 0 0 0 0 0 0
-0 -0 0 0 0 -0 -0 -0 -0 -0 -0 -0 -0 -0 -0 -0 0 0 0 0 0 0 0 0 0 0 0 0 0 0 0 0 0 0 0 0 0 -0 0 0 0 0 0
-0 -0 0 0 0 -0 0 -0 -0 -0 -0 -0 0 0 0 0 0 0 0 0 0 0 0 0 0 0 0 0 0 0 0 0 0 0 0 0 0 -0 -0 0 0 0 0
-0 0 0 0 0 0 0 -0 -0 -0 0 0 0 0 0 0 0 0 0 0 0 0 0 0 0 0 0 0 0 0 0 0 0 0 0 0 -0 -0 0 0 0 0 0
-0 0 0 -0 -0 0 0 0 0 0 0 -0 -0 0 0 0 0 0 0 0 0 0 0 0 0 0 0 0 0 0 0 0 0 0 0 0 0 0 0 0 0 0 0
-0 0 0 0 0 0 1 1 1 1 0 0 0 0 0 0 0 0 0 0 0 0 0 0 0 0 0 0 0 0 0 0 0 0 0 0 0 0 0 0 0 0 0
0 0 0 0 0 0 0 0 0 0 0 0 0 0 0 0 0 0 0 0 0 0 0 0 0 0 0 0 0 0 0 0 0 0 0 0 0 0 0 0 0 0 0
0 0 0 0 0 0 0 0 0 0 0 0 0 1 1 1 0 0 0 0 1 0 1 1 1 1 0 0 0 0 0 0 0 0 0 0 0 0 0 0 0 0 0
0 0 0 0 0 0 0 0 0 0 0 0 0 0 1 1 1 1 0 0 0 0 1 1 1 0 0 0 0 0 0 0 0 0 0 0 0 0 0 0 0 0 0
0 0 0 0 0 0 0 0 0 0 0 0 0 0 0 1 1 0 0 0 0 0 1 1 1 1 0 0 0 0 0 0 0 0 0 0 0 0 0 0 0 0 0
0 0 0 0 0 0 0 0 0 0 0 0 0 0 0 0 1 1 0 0 0 0 1 1 0 0 0 0 0 0 0 0 0 0 0 0 0 0 1 0 0 0 0
0 0 0 0 0 0 0 0 0 0 0 0 0 0 0 0 0 0 1 0 0 0 0 1 0 0 0 0 0 0 0 0 0 0 0 1 1 1 1 1 0 0 0
0 0 0 0 0 0 0 0 0 0 0 0 0 0 0 0 0 0 0 1 1 0 0 0 0 0 0 0 0 0 0 0 0 0 0 1 1 1 1 1 0 0 0
0 0 0 0 0 0 0 -0 0 0 0 0 0 0 0 0 0 0 0 0 0 0 0 0 0 0 0 0 0 0 0 0 0 0 0 0 0 1 1 1 1 0 0
0 0 0 0 0 0 0 0 0 0 0 0 0 0 0 0 0 0 0 0 0 0 0 0 0 0 0 0 0 0 0 0 0 0 0 0 1 1 0 0 1 0 0
0 0 0 0 0 0 0 0 0 0 0 0 0 0 -0 -0 0 0 0 0 0 0 0 0 0 0 0 0 0 0 0 0 0 0 0 0 1 0 0 0 0 0 0
0 0 0 0 0 0 0 -0 0 0 0 0 0 -0 -0 -0 -0 -0 0 0 0 0 0 0 0 0 0 0 0 0 0 0 0 0 0 0 0 0 0 0 0 0 0
0 0 0 0 0 0 0 0 0 0 0 0 0 -0 0 0 -0 0 0 0 0 0 0 0 0 0 0 0 0 0 0 0 0 0 0 0 0 0 0 0 0 0 0
0 0 0 0 0 0 0 0 0 0 0 0 0 0 0 -0 -0 -0 -0 0 0 0 0 0 0 0 0 0 0 0 0 0 0 0 0 0 0 0 0 0 0 0 0
0 0 0 0 0 0 0 0 0 0 0 0 0 -0 -0 -0 -0 -0 -0 -0 0 0 0 0 0 0 0 0 0 0 0 0 0 0 0 0 0 0 0 0 0 0 0
-0 -0 -0 0 0 0 0 0 0 0 0 0 0 0 0 0 0 0 -0 -0 0 0 0 0 0 0 0 0 0 0 0 0 0 0 0 0 0 0 0 0 0 0 0
Wind_Speed_500mb
21 20 22 18 14 11 12 20 31 32 30 29 30 29 26 24 24 26 26 26 26 26 26 26 25 26 25 24 24 25 25 38 44 48 48 46 47 48 47 42 39 40 43
19 19 21 18 14 14 14 17 25 28 28 28 29 30 28 27 25 25 24 23 22 22 23 23 23 23 22 21 20 22 22 20 31 41 42 42 45 46 47 42 39 42 37
19 17 15 15 14 18 20 19 23 28 28 29 31 33 32 28 25 23 21 19 18 18 19 19 17 18 17 15 15 17 18 15 17 26 33 35 39 41 43 41 37 36 36
19 16 12 10 13 20 24 23 24 28 29 28 29 30 30 26 22 21 20 17 15 14 14 15 13 12 11 10 9 11 12 15 18 17 18 27 29 36 38 37 35 33 34
18 18 14 8 11 21 27 23 22 25 29 30 28 28 26 23 19 17 15 13 12 10 9 9 9 7 7 7 5 5 6 8 12 10 9 18 21 28 32 31 30 30 31
17 14 11 8 11 21 25 24 20 21 24 27 28 27 26 24 20 17 15 13 12 12 9 6 6 6 3 3 1 0 1 3 5 6 7 8 13 17 24 24 27 28 25
16 15 11 11 11 15 22 22 18 17 19 22 25 25 25 23 21 19 17 15 13 12 10 8 8 7 7 5 4 4 4 5 7 6 7 4 4 7 16 18 20 22 21
26 19 17 15 14 15 14 16 14 12 12 16 19 21 23 23 21 20 19 19 17 16 14 13 12 12 11 11 9 9 9 9 11 10 10 8 4 6 7 10 14 17 18
30 24 21 19 18 19 19 15 10 8 9 12 14 17 19 20 20 21 21 22 22 21 20 19 18 18 17 16 15 13 15 14 18 15 13 11 9 10 9 4 6 10 15
15 27 23 20 18 17 16 13 11 10 10 10 13 17 20 21 23 25 25 26 27 27 27 27 25 24 22 20 18 18 19 20 19 18 14 13 15 16 16 9 3 3 10
23 29 28 26 24 17 16 12 6 5 8 12 15 17 20 24 24 26 28 29 31 32 32 32 32 31 29 27 23 23 23 22 22 22 20 19 21 25 24 18 11 6 8
43 40 37 31 28 26 21 14 14 13 12 14 17 19 20 23 25 26 28 30 33 34 37 38 37 35 35 33 30 27 30 27 22 24 24 28 29 33 32 26 19 13 13
41 28 22 28 28 21 16 17 10 8 12 18 21 22 22 23 26 27 28 28 30 34 36 32 29 28 28 34 35 33 33 33 27 24 27 26 28 33 36 32 26 18 19
35 29 23 19 13 8 5 10 18 22 21 17 21 27 28 25 26 31 32 30 29 32 33 29 25 22 26 29 30 37 36 36 35 26 23 27 31 32 36 35 33 24 23
46 41 34 23 17 12 11 17 29 32 27 25 25 24 28 30 29 30 36 35 37 36 35 31 30 30 31 30 27 27 35 38 40 42 31 22 25 30 38 34 38 30 28
48 42 39 36 32 27 16 14 25 31 36 22 23 24 26 29 32 34 35 38 39 43 45 42 38 34 35 35 34 30 26 27 33 39 35 31 32 31 39 44 43 35 32
53 47 44 36 26 7 9 18 15 17 18 19 21 23 21 25 32 33 35 42 44 44 47 50 55 47 44 41 37 30 33 33 33 32 36 35 36 38 40 47 46 38 33
54 50 44 30 17 4 11 10 8 10 15 20 25 29 31 31 28 31 38 38 39 51 50 52 51 46 45 45 48 48 43 42 41 42 45 46 43 38 40 50 48 42 35
58 56 46 26 11 8 14 14 10 11 11 14 18 22 26 29 35 39 35 37 44 42 47 51 54 52 48 46 41 40 52 54 49 53 54 57 53 46 43 48 50 42 36
60 51 37 24 15 6 5 3 11 15 12 13 19 27 30 31 29 30 37 39 37 41 40 44 47 51 53 48 50 45 45 49 56 52 56 59 56 53 53 53 50 47 40
35 28 22 15 10 10 4 4 10 10 16 13 20 28 34 38 39 33 24 23 34 36 29 38 46 46 47 55 55 48 49 52 52 53 50 54 60 60 62 55 54 53 43
27 21 10 4 4 2 5 17 18 18 19 15 25 36 31 31 35 41 39 28 22 28 30 27 34 41 45 31 51 47 44 45 51 49 50 44 49 56 54 54 58 54 52
16 14 12 10 4 4 12 23 29 25 27 29 35 35 32 34 38 39 40 39 33 25 27 28 32 41 48 47 48 44 20 26 38 33 36 39 48 48 51 52 60 61 40
12 18 15 11 6 6 13 20 48 45 45 48 42 41 38 36 42 48 46 41 37 35 33 31 37 37 42 48 52 59 53 51 47 30 31 30 39 51 54 51 61 68 45
14 12 18 14 13 17 19 37 54 71 74 61 58 46 47 44 49 56 52 49 44 36 34 38 36 40 42 48 50 57 55 56 54 56 42 37 40 40 45 56 63 63 68
23 19 18 26 32 41 48 52 60 75 79 71 56 47 43 50 54 53 56 51 48 45 38 36 44 41 43 50 51 55 57 62 51 44 41 43 44 39 46 42 49 55 64
Wind_Direction_500mb
158 161 142 136 140 149 134 157 169 165 158 154 154 153 149 142 135 133 129 123 119 114 109 106 104 97 90 84 78 82 96 76 67 61 56 53 49 44 47 56 59 69 78
178 165 150 144 152 164 148 148 170 176 172 167 161 160 157 151 147 142 135 128 124 118 112 107 104 101 93 85 82 84 93 89 63 58 55 50 50 45 43 49 56 66 82
186 175 160 155 170 177 169 153 163 169 172 170 167 166 162 158 153 146 140 136 132 124 117 113 110 107 101 93 85 88 90 86 64 53 50 47 48 47 44 48 52 60 66
174 166 166 173 188 190 177 163 161 168 170 167 169 170 169 168 163 157 152 149 147 137 127 123 123 123 114 100 85 83 87 70 70 59 49 46 39 47 46 46 46 57 66
172 169 162 174 195 187 179 169 163 168 173 173 175 177 181 183 183 178 173 168 165 162 151 144 140 141 130 117 102 81 68 64 81 69 53 49 36 41 46 45 41 52 62
181 169 159 155 175 180 180 173 168 168 176 183 185 188 193 195 198 200 197 196 193 190 186 191 186 187 187 150 141 93 83 334 344 17 24 36 35 31 45 46 40 42 52
195 180 164 168 167 176 181 181 176 171 175 185 197 197 203 205 208 214 217 217 216 215 221 230 241 235 235 243 251 263 265 257 288 312 335 317 18 10 44 44 42 37 40
177 179 180 177 162 156 175 188 195 192 191 195 201 206 213 216 218 224 230 236 234 236 242 248 259 262 250 251 255 270 267 259 254 277 302 281 278 293 8 41 44 34 26
178 179 190 181 160 155 154 168 194 217 237 245 239 236 236 239 240 240 243 250 253 253 256 260 263 269 267 253 253 257 268 261 267 264 273 263 252 258 287 347 39 30 10
164 178 195 183 168 153 145 159 186 201 218 236 258 268 265 262 262 264 263 263 265 267 268 270 269 268 267 265 259 259 261 267 267 269 261 263 260 253 266 277 279 1 350
199 175 183 183 177 171 166 170 190 236 249 240 240 249 260 270 271 272 275 275 274 274 274 274 275 275 274 268 261 260 258 264 272 271 262 261 262 258 258 271 268 274 303
170 175 175 178 189 185 184 184 196 207 255 251 258 264 270 276 277 276 278 279 277 274 272 272 273 275 275 275 271 264 264 265 267 281 271 260 264 254 252 259 265 266 281
175 176 174 191 191 191 208 234 257 295 288 261 254 260 271 277 280 278 277 281 287 288 288 282 284 280 284 281 271 265 265 267 272 273 277 266 260 251 246 251 261 266 274
173 167 164 166 187 218 301 323 304 287 282 289 265 266 265 263 276 279 277 278 277 278 281 279 287 282 288 299 289 264 259 259 269 266 272 269 270 253 243 247 255 268 266
175 172 171 175 188 208 265 288 317 292 280 280 278 277 262 261 268 266 270 271 275 277 276 278 281 284 285 290 298 296 265 257 258 262 259 276 273 256 244 252 252 259 252
185 191 191 198 210 226 249 305 316 285 279 282 280 281 276 273 271 265 261 261 269 275 277 274 271 280 286 282 282 289 289 258 265 258 256 269 274 260 246 243 248 255 254
197 206 205 207 215 207 330 331 302 281 289 301 303 303 300 286 281 283 275 266 260 260 273 275 277 275 282 282 283 288 288 270 265 260 257 268 272 253 246 242 249 255 264
212 222 220 216 189 270 343 355 345 340 335 333 323 319 316 312 309 296 285 281 279 266 264 271 271 269 274 283 280 281 285 280 263 263 268 266 268 263 252 243 247 250 247
211 213 205 198 236 321 18 16 13 7 358 347 335 329 327 323 311 305 307 298 285 285 269 269 270 267 269 273 272 280 280 280 281 264 262 264 265 262 260 250 246 242 237
200 203 210 210 207 160 121 37 343 341 340 331 329 327 328 328 327 318 301 299 298 289 286 275 273 275 270 275 282 272 274 278 281 285 269 262 261 260 261 253 250 239 232
171 179 196 206 171 157 117 12 13 20 357 350 354 337 322 319 317 325 325 307 293 294 288 276 275 275 286 266 270 268 267 276 278 275 273 261 269 264 261 257 252 244 228
179 181 176 136 139 98 352 343 349 349 338 346 343 346 330 318 315 322 321 320 306 289 285 279 268 276 277 263 280 284 279 280 280 271 269 262 264 258 256 260 257 240 221
204 195 205 189 199 335 322 328 357 317 328 310 322 332 335 340 337 327 318 314 309 299 284 273 268 266 274 277 283 278 278 273 281 279 274 267 253 252 258 258 253 239 212
264 237 216 228 241 273 307 327 346 325 316 315 315 322 322 327 339 339 326 319 307 298 291 279 265 258 266 271 270 270 272 269 276 284 278 272 262 251 253 255 243 236 253
346 299 291 280 271 274 300 336 334 321 314 309 307 311 314 320 329 333 328 323 320 306 289 277 274 264 257 259 269 269 270 275 273 270 264 261 264 265 255 246 240 229 251
331 307 291 301 288 297 296 303 301 308 303 293 294 297 303 313 319 322 329 326 326 322 305 282 271 269 268 264 259 261 263 266 265 265 265 261 255 254 238 249 241 240 220
Wind_Speed_850mb
21 20 22 18 14 11 12 20 31 32 30 29 30 29 26 24 24 26 26 26 26 26 26 26 25 26 25 24 24 25 25 38 44 48 48 46 47 48 47 42 39 40 43
19 19 21 18 14 14 14 17 25 28 28 28 29 30 28 27 25 25 24 23 22 22 23 23 23 23 22 21 20 22 22 20 31 41 42 42 45 46 47 42 39 42 37
19 17 15 15 14 18 20 19 23 28 28 29 31 33 32 28 25 23 21 19 18 18 19 19 17 18 17 15 15 17 18 15 17 26 33 35 39 41 43 41 37 36 36
19 16 12 10 13 20 24 23 24 28 29 28 29 30 30 26 22 21 20 17 15 14 14 15 13 12 11 10 9 11 12 15 18 17 18 27 29 36 38 37 35 33 34
18 18 14 8 11 21 27 23 22 25 29 30 28 28 26 23 19 17 15 13 12 10 9 9 9 7 7 7 5 5 6 8 12 10 9 18 21 28 32 31 30 30 31
17 14 11 8 11 21 25 24 20 21 24 27 28 27 26 24 20 17 15 13 12 12 9 6 6 6 3 3 1 0 1 3 5 6 7 8 13 17 24 24 27 28 25
16 15 11 11 11 15 22 22 18 17 19 22 25 25 25 23 21 19 17 15 13 12 10 8 8 7 7 5 4 4 4 5 7 6 7 4 4 7 16 18 20 22 21
26 19 17 15 14 15 14 16 14 12 12 16 19 21 23 23 21 20 19 19 17 16 14 13 12 12 11 11 9 9 9 9 11 10 10 8 4 6 7 10 14 17 18
30 24 21 19 18 19 19 15 10 8 9 12 14 17 19 20 20 21 21 22 22 21 20 19 18 18 17 16 15 13 15 14 18 15 13 11 9 10 9 4 6 10 15
15 27 23 20 18 17 16 13 11 10 10 10 13 17 20 21 23 25 25 26 27 27 27 27 25 24 22 20 18 18 19 20 19 18 14 13 15 16 16 9 3 3 10
23 29 28 26 24 17 16 12 6 5 8 12 15 17 20 24 24 26 28 29 31 32 32 32 32 31 29 27 23 23 23 22 22 22 20 19 21 25 24 18 11 6 8
43 40 37 31 28 26 21 14 14 13 12 14 17 19 20 23 25 26 28 30 33 34 37 38 37 35 35 33 30 27 30 27 22 24 24 28 29 33 32 26 19 13 13
41 28 22 28 28 21 16 17 10 8 12 18 21 22 22 23 26 27 28 28 30 34 36 32 29 28 28 34 35 33 33 33 27 24 27 26 28 33 36 32 26 18 19
35 29 23 19 13 8 5 10 18 22 21 17 21 27 28 25 26 31 32 30 29 32 33 29 25 22 26 29 30 37 36 36 35 26 23 27 31 32 36 35 33 24 23
46 41 34 23 17 12 11 17 29 32 27 25 25 24 28 30 29 30 36 35 37 36 35 31 30 30 31 30 27 27 35 38 40 42 31 22 25 30 38 34 38 30 28
48 42 39 36 32 27 16 14 25 31 36 22 23 24 26 29 32 34 35 38 39 43 45 42 38 34 35 35 34 30 26 27 33 39 35 31 32 31 39 44 43 35 32
53 47 44 36 26 7 9 18 15 17 18 19 21 23 21 25 32 33 35 42 44 44 47 50 55 47 44 41 37 30 33 33 33 32 36 35 36 38 40 47 46 38 33
54 50 44 30 17 4 11 10 8 10 15 20 25 29 31 31 28 31 38 38 39 51 50 52 51 46 45 45 48 48 43 42 41 42 45 46 43 38 40 50 48 42 35
58 56 46 26 11 8 14 14 10 11 11 14 18 22 26 29 35 39 35 37 44 42 47 51 54 52 48 46 41 40 52 54 49 53 54 57 53 46 43 48 50 42 36
60 51 37 24 15 6 5 3 11 15 12 13 19 27 30 31 29 30 37 39 37 41 40 44 47 51 53 48 50 45 45 49 56 52 56 59 56 53 53 53 50 47 40
35 28 22 15 10 10 4 4 10 10 16 13 20 28 34 38 39 33 24 23 34 36 29 38 46 46 47 55 55 48 49 52 52 53 50 54 60 60 62 55 54 53 43
27 21 10 4 4 2 5 17 18 18 19 15 25 36 31 31 35 41 39 28 22 28 30 27 34 41 45 31 51 47 44 45 51 49 50 44 49 56 54 54 58 54 52
16 14 12 10 4 4 12 23 29 25 27 29 35 35 32 34 38 39 40 39 33 25 27 28 32 41 48 47 48 44 20 26 38 33 36 39 48 48 51 52 60 61 40
12 18 15 11 6 6 13 20 48 45 45 48 42 41 38 36 42 48 46 41 37 35 33 31 37 37 42 48 52 59 53 51 47 30 31 30 39 51 54 51 61 68 45
14 12 18 14 13 17 19 37 54 71 74 61 58 46 47 44 49 56 52 49 44 36 34 38 36 40 42 48 50 57 55 56 54 56 42 37 40 40 45 56 63 63 68
23 19 18 26 32 41 48 52 60 75 79 71 56 47 43 50 54 53 56 51 48 45 38 36 44 41 43 50 51 55 57 62 51 44 41 43 44 39 46 42 49 55 64
Wind_Direction_850mb
158 161 142 136 140 149 134 157 169 165 158 154 154 153 149 142 135 133 129 123 119 114 109 106 104 97 90 84 78 82 96 76 67 61 56 53 49 44 47 56 59 69 78
178 165 150 144 152 164 148 148 170 176 172 167 161 160 157 151 147 142 135 128 124 118 112 107 104 101 93 85 82 84 93 89 63 58 55 50 50 45 43 49 56 66 82
186 175 160 155 170 177 169 153 163 169 172 170 167 166 162 158 153 146 140 136 132 124 117 113 110 107 101 93 85 88 90 86 64 53 50 47 48 47 44 48 52 60 66
174 166 166 173 188 190 177 163 161 168 170 167 169 170 169 168 163 157 152 149 147 137 127 123 123 123 114 100 85 83 87 70 70 59 49 46 39 47 46 46 46 57 66
172 169 162 174 195 187 179 169 163 168 173 173 175 177 181 183 183 178 173 168 165 162 151 144 140 141 130 117 102 81 68 64 81 69 53 49 36 41 46 45 41 52 62
181 169 159 155 175 180 180 173 168 168 176 183 185 188 193 195 198 200 197 196 193 190 186 191 186 187 187 150 141 93 83 334 344 17 24 36 35 31 45 46 40 42 52
195 180 164 168 167 176 181 181 176 171 175 185 197 197 203 205 208 214 217 217 216 215 221 230 241 235 235 243 251 263 265 257 288 312 335 317 18 10 44 44 42 37 40
177 179 180 177 162 156 175 188 195 192 191 195 201 206 213 216 218 224 230 236 234 236 242 248 259 262 250 251 255 270 267 259 254 277 302 281 278 293 8 41 44 34 26
178 179 190 181 160 155 154 168 194 217 237 245 239 236 236 239 240 240 243 250 253 253 256 260 263 269 267 253 253 257 268 261 267 264 273 263 252 258 287 347 39 30 10
164 178 195 183 168 153 145 159 186 201 218 236 258 268 265 262 262 264 263 263 265 267 268 270 269 268 267 265 259 259 261 267 267 269 261 263 260 253 266 277 279 1 350
199 175 183 183 177 171 166 170 190 236 249 240 240 249 260 270 271 272 275 275 274 274 274 274 275 275 274 268 261 260 258 264 272 271 262 261 262 258 258 271 268 274 303
170 175 175 178 189 185 184 184 196 207 255 251 258 264 270 276 277 276 278 279 277 274 272 272 273 275 275 275 271 264 264 265 267 281 271 260 264 254 252 259 265 266 281
175 176 174 191 191 191 208 234 257 295 288 261 254 260 271 277 280 278 277 281 287 288 288 282 284 280 284 281 271 265 265 267 272 273 277 266 260 251 246 251 261 266 274
173 167 164 166 187 218 301 323 304 287 282 289 265 266 265 263 276 279 277 278 277 278 281 279 287 282 288 299 289 264 259 259 269 266 272 269 270 253 243 247 255 268 266
175 172 171 175 188 208 265 288 317 292 280 280 278 277 262 261 268 266 270 271 275 277 276 278 281 284 285 290 298 296 265 257 258 262 259 276 273 256 244 252 252 259 252
185 191 191 198 210 226 249 305 316 285 279 282 280 281 276 273 271 265 261 261 269 275 277 274 271 280 286 282 282 289 289 258 265 258 256 269 274 260 246 243 248 255 254
197 206 205 207 215 207 330 331 302 281 289 301 303 303 300 286 281 283 275 266 260 260 273 275 277 275 282 282 283 288 288 270 265 260 257 268 272 253 246 242 249 255 264
212 222 220 216 189 270 343 355 345 340 335 333 323 319 316 312 309 296 285 281 279 266 264 271 271 269 274 283 280 281 285 280 263 263 268 266 268 263 252 243 247 250 247
211 213 205 198 236 321 18 16 13 7 358 347 335 329 327 323 311 305 307 298 285 285 269 269 270 267 269 273 272 280 280 280 281 264 262 264 265 262 260 250 246 242 237
200 203 210 210 207 160 121 37 343 341 340 331 329 327 328 328 327 318 301 299 298 289 286 275 273 275 270 275 282 272 274 278 281 285 269 262 261 260 261 253 250 239 232
171 179 196 206 171 157 117 12 13 20 357 350 354 337 322 319 317 325 325 307 293 294 288 276 275 275 286 266 270 268 267 276 278 275 273 261 269 264 261 257 252 244 228
179 181 176 136 139 98 352 343 349 349 338 346 343 346 330 318 315 322 321 320 306 289 285 279 268 276 277 263 280 284 279 280 280 271 269 262 264 258 256 260 257 240 221
204 195 205 189 199 335 322 328 357 317 328 310 322 332 335 340 337 327 318 314 309 299 284 273 268 266 274 277 283 278 278 273 281 279 274 267 253 252 258 258 253 239 212
264 237 216 228 241 273 307 327 346 325 316 315 315 322 322 327 339 339 326 319 307 298 291 279 265 258 266 271 270 270 272 269 276 284 278 272 262 251 253 255 243 236 253
346 299 291 280 271 274 300 336 334 321 314 309 307 311 314 320 329 333 328 323 320 306 289 277 274 264 257 259 269 269 270 275 273 270 264 261 264 265 255 246 240 229 251
331 307 291 301 288 297 296 303 301 308 303 293 294 297 303 313 319 322 329 326 326 322 305 282 271 269 268 264 259 261 263 266 265 265 265 261 255 254 238 249 241 240 220